Location: Zagreb
(45.8000°N, 16.0000°E)
Time: 13:49:17
(UTC+02:00)

Transit 2A - Pass Details

Date: 11 August 2022
Orbit: 601 x 956 km, 66.7° (Epoch: 25 September)

Event Time Altitude Azimuth Distance (km) Brightness Sun altitude
Rises 12:19:15 0° 200° (SSW) 3,178 9.5 58.2°
Reaches altitude 10° 12:21:44 10° 197° (SSW) 2,201 8.9 58.3°
Maximum altitude 12:26:36 59° 119° (ESE) 781 7.6 58.5°
Drops below altitude 10° 12:31:06 10° 40° (NE) 2,033 8.1 58.8°
Sets 12:33:19 0° 37° (NE) 2,913 8.8 58.8°
